Regional Weather Roundup
Issued by NWS Portland, ME

Home | Current Version | Previous Version | Text Only | Print | Product List | Glossary On
Versions: 1 2 3 4 5 6 7 8 9 10 11 12 13 14 15 16 17 18 19 20 21 22 23 24 25 26 27 28 29 30 31 32 33 34 35 36 37 38 39 40 41 42 43 44 45 46 47 48 49 50
219
ASUS41 KGYX 231910
RWRGYX
WEATHER ROUNDUP FOR MAINE AND NEW HAMPSHIRE
NATIONAL WEATHER SERVICE GRAY ME
300 PM EDT SAT JUL 23 2016

MEZ002-005-006-010-012-015-018-020-021-024-026-027-029-232000-
MAINE

CITY           SKY/WX    TMP DP  RH WIND       PRES   REMARKS
PORTLAND       PTSUNNY   80  63  55 S9        29.72S
SANFORD          N/A     83  66  56 SE8       29.73R
BAR HARBOR     CLOUDY    82  67  60 S12       29.68F
WISCASSET      SUNNY     87  62  43 W8        29.71F
ROCKLAND       MOSUNNY   81  68  64 S7        29.69F THUNDER
FRYEBURG       MOSUNNY   81  62  52 NW6       29.74R
LEWISTONAUBURN CLOUDY    84  64  50 N9        29.72F
AUGUSTA        CLOUDY    83  63  50 NW9       29.72S
WATERVILLE     PTSUNNY   82  63  52 VRB7      29.69S
BANGOR         PTSUNNY   89  59  36 VRB5      29.68F
GREENVILLE       N/A     68  59  73 VRB6      29.73S
MILLINOCKET    MOSUNNY   81  60  48 VRB5      29.68F
HOULTON        TSTM      69  66  90 E5        29.66R
PRESQUE ISLE   TSTM      66  62  87 SW6       29.68R
FRENCHVILLE    MOSUNNY   76  59  55 NW12      29.67S
CARIBOU        CLOUDY    75  64  68 SW8       29.65R
$$

NHZ002-005-008-009-011-012-014-232000-
NEW HAMPSHIRE

CITY           SKY/WX    TMP DP  RH WIND       PRES   REMARKS
PORTSMOUTH     PTSUNNY   86  64  47 S10       29.69F
ROCHESTER      MOSUNNY   90  61  37 VRB3      29.71F HX  90
NASHUA         MOSUNNY   92  57  30 W10G24    29.72F HX  90
MANCHESTER     MOSUNNY   92  55  28 NW12G23   29.71F HX  90
CONCORD        PTSUNNY   92  60  34 W14G20    29.72F HX  91
LACONIA        PTSUNNY   77  67  71 W5        29.76S
PLYMOUTH       FAIR      80  65  62 CALM      29.74F
BERLIN         TSTM      65  61  87 VRB3      29.82R FOG
WHITEFIELD     LGT RAIN  69  64  84 S3        29.80F
JAFFREY        SUNNY     89  52  28 VRB7      29.79F
KEENE          PTSUNNY   89  60  37 VRB7      29.77F
LEBANON        MOSUNNY   89  61  38 W10       29.74F
MT WASHINGTON  TSTM      50  50 100 W31         N/A  VSB 1/8
$$

VTZ005-007-008-232000-
VERMONT

CITY           SKY/WX    TMP DP  RH WIND       PRES   REMARKS
ST JOHNSBURY     N/A     74  65  73 MISG      29.76S
MONTPELIER     FAIR      81  59  47 W10G17    29.81F
BURLINGTON     LGT RAIN  83  64  52 N12       29.76F
$$

MAZ007-012-024-CTZ003-RIZ002-NYZ038-NYZ072-232000-
SOUTHERN NEW ENGLAND AND NY

CITY           SKY/WX    TMP DP  RH WIND       PRES   REMARKS
BOSTON         PTSUNNY   83  62  49 E13G18    29.72S
WORCESTER      MOSUNNY   88  52  29 W16G26    29.80F
NANTUCKET      SUNNY     80  68  66 W18       29.77S
PROVIDENCE     MOSUNNY   92  62  36 W15G23    29.76F HX  92
HARTFORD       MOSUNNY   95  56  26 W20G28    29.77F HX  93
ALBANY         PTSUNNY   91  58  32 W15G22    29.79F HX  90
NEW YORK CITY  MOSUNNY   95  57  27 W16G22    29.81S HX  94
$$

ANZ081-ANZ082-ANZ150-NHZ014-MEZ023>029-232000-
COASTAL MARINE OBSERVATIONS

STATION/POSITION TIME  TEMP    WIND        PRES    WAVE
                       AIR SEA DIR/SP/G            HT/PER
                 (UTC) (F)     (DEG/KT/KT) (MB)    (FT/S)
MOUNT DESERT ROC 1900   64     220/ 14/ 14 1005.8F
MATINICUS ROCK   1900   67     240/ 13/ 14 1005.7F
ISLE OF SHOALS   1800   77     130/ 12/ 13 1006.5F
JEFFREYS LEDGE   1808      72                N/A     2/ 7
CASHES LEDGE BUO 1850   71 70  220/  8/  8 1006.6F   3/ 6
GEORGES BANK BUO 1750   66 62              1008.2    6/ 7
$$

.............KEY..............
   WCI - WIND CHILL
   TC  - TEMPERATURE IN CELSIUS
   VSB - VISIBILITY IN MILES
   HX  - HEAT INDEX
   FAIR- INDICATES FEW OR NO CLOUDS BELOW 12,000 FT, WITH NO
         SIGNIFICANT WEATHER AND/OR OBSTRUCTIONS TO VISIBILITY.






USA.gov is the U.S. government's official web portal to all federal, state and local government web resources and services.